Location: ?????????
(53.2086°N, 54.0693°E)
Time: 20:01:46
(UTC+00:00)

Cosmos 1340 - Pass Details

Date: 08 December 2019
Orbit: 501 x 506 km, 81.2° (Epoch: 29 January)

Event Time Altitude Azimuth Distance (km) Brightness Sun altitude
Rises 13:33:48 0° 340° (NNW) 2,623 6.3 -12.1°
Reaches altitude 10° 13:36:02 10° 333° (NNW) 1,733 5.4 -12.4°
Maximum altitude 13:39:33 37° 265° (W) 802 4.3 -12.9°
Drops below altitude 10° 13:43:03 10° 197° (SSW) 1,720 5.9 -13.4°
Sets 13:45:15 0° 189° (S) 2,601 6.7 -13.7°
